Location: Colorado Springs
(38.8340°N, 104.8210°W)
Time: 19:36:49
(UTC-07:00)

Envisat - Visible Passes

Search period start: 10 December 2018 00:00
Search period end: 20 December 2018 00:00
Orbit: 764 x 766 km, 98.2° (Epoch: 10 December)

Date Brightness Start Highest point End Pass type
(mag) Time Alt. Az. Time Alt. Az. Time Alt. Az.
10 Dec 3.6 18:04:35 10° SE 18:09:01 32° ENE 18:13:28 10° N visible
10 Dec 4.8 19:43:40 10° SSW 19:48:00 28° W 19:52:21 10° NW visible
11 Dec 6.3 06:16:53 10° ENE 06:18:29 11° E 06:20:04 10° ESE visible
11 Dec 4.5 17:29:54 10° E 17:32:40 15° ENE 17:35:27 10° NNE visible
11 Dec 3.3 19:06:05 10° S 19:11:06 65° WSW 19:16:10 10° NNW visible
12 Dec 3.0 18:29:28 10° SSE 18:34:25 55° ENE 18:39:23 10° N visible
12 Dec 5.6 20:10:45 10° SW 20:13:45 16° W 20:16:47 10° NW visible
13 Dec 3.9 17:53:49 10° ESE 17:57:55 25° ENE 18:02:02 10° NNE visible
13 Dec 4.4 19:32:06 10° SSW 19:36:44 36° W 19:41:24 10° NNW visible
14 Dec 4.7 17:19:54 10° E 17:21:38 12° ENE 17:23:22 10° NE visible
14 Dec 2.9 18:54:50 10° SSE 18:59:54 83° WSW 19:05:01 10° NNW visible
15 Dec 3.2 18:18:30 10° SE 18:23:17 43° ENE 18:28:04 10° N visible
15 Dec 5.3 19:58:46 10° SW 20:02:28 20° W 20:06:10 10° NW visible
16 Dec 5.9 06:29:49 10° NE 06:33:00 17° E 06:36:10 10° SE visible
16 Dec 4.2 17:43:11 10° ESE 17:46:49 20° ENE 17:50:29 10° NNE visible
16 Dec 3.9 19:20:39 10° S 19:25:30 46° W 19:30:23 10° NNW visible
17 Dec 2.8 18:43:40 10° SSE 18:48:43 78° ENE 18:53:49 10° N visible
17 Dec 6.0 20:27:07 10° WSW 20:28:17 11° W 20:29:27 10° WNW visible
18 Dec 3.5 18:07:36 10° SE 18:12:09 34° ENE 18:16:42 10° N visible
18 Dec 5.0 19:47:01 10° SSW 19:51:10 26° W 19:55:22 10° NW visible
19 Dec 6.1 06:19:28 10° ENE 06:21:41 13° E 06:23:53 10° ESE visible
19 Dec 4.4 17:32:42 10° E 17:35:46 16° ENE 17:38:49 10° NNE visible
19 Dec 3.5 19:09:17 10° S 19:14:16 59° W 19:19:18 10° NNW visible
